This is the latest recevied weather packets stored in our database for station/object HS5AU-13. If no packets are shown the sender has not sent any weather packets the latest 10 day(s).
| Time | Temp. | Humidity | Pressure | Rain* | Wind** | Luminosity | Snow |
|---|---|---|---|---|---|---|---|
| 1788441305 | 23.89° C | 92% | 1003.1 hPa | 0 mm | - | 2 W/m² | - |
| 1788440705 | 24.44° C | 94% | 1002.1 hPa | 0 mm | - | 2 W/m² | - |
| 1788440105 | 24.44° C | 95% | 1001.4 hPa | 0 mm | - | 2 W/m² | - |
| 1788439505 | 24.44° C | 94% | 1001.6 hPa | 0 mm | - | 2 W/m² | - |
| 1788438905 | 24.44° C | 96% | 1001.2 hPa | 0 mm | - | 2 W/m² | - |
| 1788438305 | 23.89° C | 95% | 1000.7 hPa | 0 mm | - | 2 W/m² | - |
| 1788437705 | 23.89° C | 99% | 999.6 hPa | 0 mm | - | 2 W/m² | - |
| 1788437105 | 23.89° C | 99% | 999.3 hPa | 0 mm | - | 2 W/m² | - |
| 1788436505 | 23.89° C | 99% | 999 hPa | 0 mm | - | 2 W/m² | - |
| 1788435905 | 23.89° C | 99% | 999 hPa | 0 mm | - | 2 W/m² | - |
| 1788435305 | 23.89° C | 99% | 998.6 hPa | 0 mm | - | 7 W/m² | - |
| 1788434705 | 23.89° C | 99% | 998.3 hPa | 0 mm | - | 18 W/m² | - |
| 1788434105 | 23.89° C | 99% | 998.3 hPa | 0 mm | - | 30 W/m² | - |
| 1788433505 | 23.89° C | 99% | 998.1 hPa | 0 mm | - | 38 W/m² | - |
| 1788432905 | 23.89° C | 99% | 998.1 hPa | 0 mm | - | 37 W/m² | - |
| 1788432305 | 23.89° C | 99% | 998.3 hPa | 0 mm | - | 35 W/m² | - |
| 1788431705 | 23.89° C | 99% | 998.3 hPa | 0 mm | - | 36 W/m² | - |
| 1788431105 | 23.89° C | 99% | 998.6 hPa | 0 mm | - | 41 W/m² | - |
| 1788430505 | 23.89° C | 99% | 998.7 hPa | 0 mm | - | 46 W/m² | - |
| 1788429905 | 23.89° C | 99% | 998.9 hPa | 0 mm | - | 53 W/m² | - |
| 1788429305 | 23.89° C | 99% | 998.9 hPa | 0 mm | - | 54 W/m² | - |
| 1788428705 | 23.89° C | 99% | 999.4 hPa | 0 mm | - | 42 W/m² | - |
| 1788428105 | 23.89° C | 99% | 999.6 hPa | 0 mm | - | 53 W/m² | - |
| 1788427505 | 23.89° C | 99% | 999.7 hPa | 0 mm | - | 60 W/m² | - |
| 1788426905 | 23.89° C | 99% | 1000 hPa | 0 mm | - | 71 W/m² | - |
* Rain latest hour (hover to see other rain measurements)
** Current wind speed in m/s (hover to see current wind gust speed)